sat.trackr.live / text

‹ back to catalog

STARLINK-4552

NORAD 53420 · 2022-097AJ

PAYLOAD ACTIVE UNKNOWN

§ Identity

Operator
Country
US
Launch date
2022-08-10
Launch site
AFETR
Launch vehicle
Mass (kg)
RCS (m²)

Purposes: comms

External: N2YO · Heavens-Above · Gunter

§ Orbital elements

Epoch: 2026-09-19T20:38:39.895008Z

Period
93.85 min
Inclination
53.1592°
Eccentricity
0.0001487
Mean motion
15.34381297 rev/d
Perigee alt
461.7 km
Apogee alt
463.8 km
Semi-major
6,840.9 km
B*
-2.9572e-5
RAAN
308.8783°
Arg perigee
120.6810°
Mean anomaly
239.4339°
Rev number
22,812

§ Raw data

STARLINK-45521 53420U 22097AJ  26262.86018397 -.00001375  00000+0 -29572-4 0  99902 53420  53.1592 308.8783 0001487 120.6810 239.4339 15.34381297228127

JSON: /api/v1/satellites/53420 · /tle

For live sub-satellite position, see the globe view (requires WebGL).

§ Visibility from observer

Set your observer location to see the next 7 days of passes ≥ 10°. The values pass through the URL so the page stays shareable.

No JS? Fill the form by hand. The geolocation button needs JavaScript.